Year,Month,Day,Hour,Minute,Value (Times are PST for temperature in C)
2020,11,29,00,00,1.70
2020,11,29,00,01,1.70
2020,11,29,00,02,1.70
2020,11,29,00,03,1.70
2020,11,29,00,04,1.70
2020,11,29,00,05,1.70
2020,11,29,00,06,1.70
2020,11,29,00,07,1.70
2020,11,29,00,08,1.70
2020,11,29,00,09,1.70
2020,11,29,00,10,1.70
2020,11,29,00,11,1.70
2020,11,29,00,12,1.70
2020,11,29,00,13,1.70
2020,11,29,00,14,1.70
2020,11,29,00,15,1.70
2020,11,29,00,16,1.70
2020,11,29,00,17,1.70
2020,11,29,00,18,1.70
2020,11,29,00,19,1.70
2020,11,29,00,20,1.70
2020,11,29,00,21,1.70
2020,11,29,00,22,1.70
2020,11,29,00,23,1.70
2020,11,29,00,24,1.70
2020,11,29,00,25,1.70
2020,11,29,00,26,1.70
2020,11,29,00,27,1.70
2020,11,29,00,28,1.80
2020,11,29,00,29,1.80
2020,11,29,00,30,1.80
2020,11,29,00,31,1.80
2020,11,29,00,32,1.80
2020,11,29,00,33,1.90
2020,11,29,00,34,1.90
2020,11,29,00,35,1.90
2020,11,29,00,36,1.90
2020,11,29,00,37,1.90
2020,11,29,00,38,1.90
2020,11,29,00,39,1.90
2020,11,29,00,40,1.90
2020,11,29,00,41,1.90
2020,11,29,00,42,1.90
2020,11,29,00,43,1.90
2020,11,29,00,44,1.80
2020,11,29,00,45,1.80
2020,11,29,00,46,1.80
2020,11,29,00,47,1.80
2020,11,29,00,48,1.80
2020,11,29,00,49,1.80
2020,11,29,00,50,1.80
2020,11,29,00,51,1.80
2020,11,29,00,52,1.70
2020,11,29,00,53,1.70
2020,11,29,00,54,1.70
2020,11,29,00,55,1.70
2020,11,29,00,56,1.70
2020,11,29,00,57,1.70
2020,11,29,00,58,1.70
2020,11,29,00,59,1.70
2020,11,29,01,00,1.70
2020,11,29,01,01,1.70
2020,11,29,01,02,1.70
2020,11,29,01,03,1.70
2020,11,29,01,04,1.70
2020,11,29,01,05,1.70
2020,11,29,01,06,1.70
2020,11,29,01,07,1.70
2020,11,29,01,08,1.60
2020,11,29,01,09,1.60
2020,11,29,01,10,1.60
2020,11,29,01,11,1.60
2020,11,29,01,12,1.60
2020,11,29,01,13,1.60
2020,11,29,01,14,1.70
2020,11,29,01,15,1.70
2020,11,29,01,16,1.60
2020,11,29,01,17,1.70
2020,11,29,01,18,1.70
2020,11,29,01,19,1.70
2020,11,29,01,20,1.70
2020,11,29,01,21,1.70
2020,11,29,01,22,1.70
2020,11,29,01,23,1.70
2020,11,29,01,24,1.70
2020,11,29,01,25,1.70
2020,11,29,01,26,1.70
2020,11,29,01,27,1.70
2020,11,29,01,28,1.70
2020,11,29,01,29,1.70
2020,11,29,01,30,1.70
2020,11,29,01,31,1.80
2020,11,29,01,32,1.80
2020,11,29,01,33,1.80
2020,11,29,01,34,1.80
2020,11,29,01,35,1.90
2020,11,29,01,36,1.90
2020,11,29,01,37,1.90
2020,11,29,01,38,1.90
2020,11,29,01,39,1.90
2020,11,29,01,40,1.90
2020,11,29,01,41,1.90
2020,11,29,01,42,1.90
2020,11,29,01,43,1.90
2020,11,29,01,44,1.90
2020,11,29,01,45,2.00
2020,11,29,01,46,1.90
2020,11,29,01,47,1.90
2020,11,29,01,48,1.90
2020,11,29,01,49,1.90
2020,11,29,01,50,1.90
2020,11,29,01,51,1.90
2020,11,29,01,52,1.90
2020,11,29,01,53,1.90
2020,11,29,01,54,1.90
2020,11,29,01,55,1.90
2020,11,29,01,56,1.90
2020,11,29,01,57,1.90
2020,11,29,01,58,1.80
2020,11,29,01,59,1.90
2020,11,29,02,00,1.90
2020,11,29,02,01,1.90
2020,11,29,02,02,1.80
2020,11,29,02,03,1.80
2020,11,29,02,04,1.80
2020,11,29,02,05,1.80
2020,11,29,02,06,1.80
2020,11,29,02,07,1.80
2020,11,29,02,08,1.80
2020,11,29,02,09,1.80
2020,11,29,02,10,1.80
2020,11,29,02,11,1.80
2020,11,29,02,12,1.80
2020,11,29,02,13,1.70
2020,11,29,02,14,1.70
2020,11,29,02,15,1.70
2020,11,29,02,16,1.70
2020,11,29,02,17,1.70
2020,11,29,02,18,1.60
2020,11,29,02,19,1.60
2020,11,29,02,20,1.60
2020,11,29,02,21,1.60
2020,11,29,02,22,1.60
2020,11,29,02,23,1.60
2020,11,29,02,24,1.60
2020,11,29,02,25,1.60
2020,11,29,02,26,1.60
2020,11,29,02,27,1.60
2020,11,29,02,28,1.70
2020,11,29,02,29,1.70
2020,11,29,02,30,1.70
2020,11,29,02,31,1.70
2020,11,29,02,32,1.70
2020,11,29,02,33,1.80
2020,11,29,02,34,1.80
2020,11,29,02,35,1.80
2020,11,29,02,36,1.90
2020,11,29,02,37,1.90
2020,11,29,02,38,1.90
2020,11,29,02,39,2.00
2020,11,29,02,40,2.00
2020,11,29,02,41,2.00
2020,11,29,02,42,2.10
2020,11,29,02,43,2.10
2020,11,29,02,44,2.10
2020,11,29,02,45,2.10
2020,11,29,02,46,2.10
2020,11,29,02,47,2.10
2020,11,29,02,48,2.10
2020,11,29,02,49,2.10
2020,11,29,02,50,2.10
2020,11,29,02,51,2.10
2020,11,29,02,52,2.10
2020,11,29,02,53,2.10
2020,11,29,02,54,2.10
2020,11,29,02,55,2.10
2020,11,29,02,56,2.10
2020,11,29,02,57,2.10
2020,11,29,02,58,2.10
2020,11,29,02,59,2.10
2020,11,29,03,00,2.10
2020,11,29,03,01,2.00
2020,11,29,03,02,2.00
2020,11,29,03,03,2.00
2020,11,29,03,04,2.00
2020,11,29,03,05,1.90
2020,11,29,03,06,1.90
2020,11,29,03,07,1.90
2020,11,29,03,08,1.90
2020,11,29,03,09,1.90
2020,11,29,03,10,1.80
2020,11,29,03,11,1.80
2020,11,29,03,12,1.80
2020,11,29,03,13,1.80
2020,11,29,03,14,1.80
2020,11,29,03,15,1.80
2020,11,29,03,16,1.80
2020,11,29,03,17,1.80
2020,11,29,03,18,1.80
2020,11,29,03,19,1.80
2020,11,29,03,20,1.90
2020,11,29,03,21,1.90
2020,11,29,03,22,2.00
2020,11,29,03,23,2.10
2020,11,29,03,24,2.20
2020,11,29,03,25,2.20
2020,11,29,03,26,2.30
2020,11,29,03,27,2.30
2020,11,29,03,28,2.30
2020,11,29,03,29,2.40
2020,11,29,03,30,2.40
2020,11,29,03,31,2.40
2020,11,29,03,32,2.40
2020,11,29,03,33,2.40
2020,11,29,03,34,2.40
2020,11,29,03,35,2.50
2020,11,29,03,36,2.50
2020,11,29,03,37,2.60
2020,11,29,03,38,2.50
2020,11,29,03,39,2.50
2020,11,29,03,40,2.50
2020,11,29,03,41,2.50
2020,11,29,03,42,2.50
2020,11,29,03,43,2.50
2020,11,29,03,44,2.60
2020,11,29,03,45,2.60
2020,11,29,03,46,2.60
2020,11,29,03,47,2.70
2020,11,29,03,48,2.80
2020,11,29,03,49,2.80
2020,11,29,03,50,2.90
2020,11,29,03,51,3.00
2020,11,29,03,52,3.00
2020,11,29,03,53,3.10
2020,11,29,03,54,3.10
2020,11,29,03,55,3.20
2020,11,29,03,56,3.20
2020,11,29,03,57,3.20
2020,11,29,03,58,3.20
2020,11,29,03,59,3.20
2020,11,29,04,00,3.20
2020,11,29,04,01,3.20
2020,11,29,04,02,3.20
2020,11,29,04,03,3.20
2020,11,29,04,04,3.20
2020,11,29,04,05,3.20
2020,11,29,04,06,3.30
2020,11,29,04,07,3.30
2020,11,29,04,08,3.30
2020,11,29,04,09,3.30
2020,11,29,04,10,3.40
2020,11,29,04,11,3.40
2020,11,29,04,12,3.40
2020,11,29,04,13,3.40
2020,11,29,04,14,3.40
2020,11,29,04,15,3.40
2020,11,29,04,16,3.40
2020,11,29,04,17,3.40
2020,11,29,04,18,3.30
2020,11,29,04,19,3.30
2020,11,29,04,20,3.30
2020,11,29,04,21,3.30
2020,11,29,04,22,3.30
2020,11,29,04,23,3.30
2020,11,29,04,24,3.30
2020,11,29,04,25,3.20
2020,11,29,04,26,3.20
2020,11,29,04,27,3.10
2020,11,29,04,28,3.10
2020,11,29,04,29,3.00
2020,11,29,04,30,3.00
2020,11,29,04,31,2.90
2020,11,29,04,32,3.00
2020,11,29,04,33,3.00
2020,11,29,04,34,3.10
2020,11,29,04,35,3.10
2020,11,29,04,36,3.20
2020,11,29,04,37,3.20
2020,11,29,04,38,3.20
2020,11,29,04,39,3.30
2020,11,29,04,40,3.30
2020,11,29,04,41,3.40
2020,11,29,04,42,3.40
2020,11,29,04,43,3.50
2020,11,29,04,44,3.50
2020,11,29,04,45,3.60
2020,11,29,04,46,3.60
2020,11,29,04,47,3.60
2020,11,29,04,48,3.60
2020,11,29,04,49,3.60
2020,11,29,04,50,3.70
2020,11,29,04,51,3.70
2020,11,29,04,52,3.70
2020,11,29,04,53,3.80
2020,11,29,04,54,3.80
2020,11,29,04,55,3.80
2020,11,29,04,56,3.80
2020,11,29,04,57,3.80
2020,11,29,04,58,3.80
2020,11,29,04,59,3.90
2020,11,29,05,00,3.90
2020,11,29,05,01,3.90
2020,11,29,05,02,3.90
2020,11,29,05,03,4.00
2020,11,29,05,04,4.00
2020,11,29,05,05,4.00
2020,11,29,05,06,4.10
2020,11,29,05,07,4.10
2020,11,29,05,08,4.10
2020,11,29,05,09,4.10
2020,11,29,05,10,4.20
2020,11,29,05,11,4.20
2020,11,29,05,12,4.20
2020,11,29,05,13,4.20
2020,11,29,05,14,4.20
2020,11,29,05,15,4.20
2020,11,29,05,16,4.20
2020,11,29,05,17,4.20
2020,11,29,05,18,4.20
2020,11,29,05,19,4.30
2020,11,29,05,20,4.30
2020,11,29,05,21,4.30
2020,11,29,05,22,4.30
2020,11,29,05,23,4.30
2020,11,29,05,24,4.30
2020,11,29,05,25,4.30
2020,11,29,05,26,4.30
2020,11,29,05,27,4.30
2020,11,29,05,28,4.30
2020,11,29,05,29,4.30
2020,11,29,05,30,4.30
2020,11,29,05,31,4.30
2020,11,29,05,32,4.40
2020,11,29,05,33,4.40
2020,11,29,05,34,4.40
2020,11,29,05,35,4.40
2020,11,29,05,36,4.40
2020,11,29,05,37,4.40
2020,11,29,05,38,4.40
2020,11,29,05,39,4.30
2020,11,29,05,40,4.30
2020,11,29,05,41,4.30
2020,11,29,05,42,4.30
2020,11,29,05,43,4.30
2020,11,29,05,44,4.30
2020,11,29,05,45,4.30
2020,11,29,05,46,4.40
2020,11,29,05,47,4.40
2020,11,29,05,48,4.40
2020,11,29,05,49,4.30
2020,11,29,05,50,4.40
2020,11,29,05,51,4.40
2020,11,29,05,52,4.40
2020,11,29,05,53,4.30
2020,11,29,05,54,4.30
2020,11,29,05,55,4.30
2020,11,29,05,56,4.30
2020,11,29,05,57,4.30
2020,11,29,05,58,4.30
2020,11,29,05,59,4.30
2020,11,29,06,00,4.20
2020,11,29,06,01,4.20
2020,11,29,06,02,4.20
2020,11,29,06,03,4.20
2020,11,29,06,04,4.20
2020,11,29,06,05,4.20
2020,11,29,06,06,4.20
2020,11,29,06,07,4.20
2020,11,29,06,08,4.10
2020,11,29,06,09,4.10
2020,11,29,06,10,4.10
2020,11,29,06,11,4.00
2020,11,29,06,12,4.00
2020,11,29,06,13,4.00
2020,11,29,06,14,4.00
2020,11,29,06,15,3.90
2020,11,29,06,16,3.90
2020,11,29,06,17,3.90
2020,11,29,06,18,3.90
2020,11,29,06,19,3.90
2020,11,29,06,20,3.90
2020,11,29,06,21,3.80
2020,11,29,06,22,3.80
2020,11,29,06,23,3.80
2020,11,29,06,24,3.80
2020,11,29,06,25,3.70
2020,11,29,06,26,3.70
2020,11,29,06,27,3.70
2020,11,29,06,28,3.70
2020,11,29,06,29,3.70
2020,11,29,06,30,3.70
2020,11,29,06,31,3.70
2020,11,29,06,32,3.60
2020,11,29,06,33,3.60
2020,11,29,06,34,3.60
2020,11,29,06,35,3.60
2020,11,29,06,36,3.60
2020,11,29,06,37,3.60
2020,11,29,06,38,3.60
2020,11,29,06,39,3.60
2020,11,29,06,40,3.60
2020,11,29,06,41,3.60
2020,11,29,06,42,3.60
2020,11,29,06,43,3.60
2020,11,29,06,44,3.60
2020,11,29,06,45,3.60
2020,11,29,06,46,3.50
2020,11,29,06,47,3.50
2020,11,29,06,48,3.50
2020,11,29,06,49,3.50
2020,11,29,06,50,3.50
2020,11,29,06,51,3.40
2020,11,29,06,52,3.40
2020,11,29,06,53,3.40
2020,11,29,06,54,3.40
2020,11,29,06,55,3.40
2020,11,29,06,56,3.30
2020,11,29,06,57,3.30
2020,11,29,06,58,3.30
2020,11,29,06,59,3.30
2020,11,29,07,00,3.20
2020,11,29,07,01,3.20
2020,11,29,07,02,3.20
2020,11,29,07,03,3.20
2020,11,29,07,04,3.10
2020,11,29,07,05,3.10
2020,11,29,07,06,3.10
2020,11,29,07,07,3.10
2020,11,29,07,08,3.00
2020,11,29,07,09,2.90
2020,11,29,07,10,2.90
2020,11,29,07,11,2.90
2020,11,29,07,12,2.80
2020,11,29,07,13,2.80
2020,11,29,07,14,2.80
2020,11,29,07,15,2.80
2020,11,29,07,16,2.70
2020,11,29,07,17,2.70
2020,11,29,07,18,2.70
2020,11,29,07,19,2.70
2020,11,29,07,20,2.70
2020,11,29,07,21,2.70
2020,11,29,07,22,2.70
2020,11,29,07,23,2.70
2020,11,29,07,24,2.60
2020,11,29,07,25,2.60
2020,11,29,07,26,2.60
2020,11,29,07,27,2.60
2020,11,29,07,28,2.60
2020,11,29,07,29,2.50
2020,11,29,07,30,2.50
2020,11,29,07,31,2.50
2020,11,29,07,32,2.40
2020,11,29,07,33,2.40
2020,11,29,07,34,2.40
2020,11,29,07,35,2.40
2020,11,29,07,36,2.40
2020,11,29,07,37,2.30
2020,11,29,07,38,2.30
2020,11,29,07,39,2.30
2020,11,29,07,40,2.30
2020,11,29,07,41,2.30
2020,11,29,07,42,2.30
2020,11,29,07,43,2.20
2020,11,29,07,44,2.20
2020,11,29,07,45,2.20
2020,11,29,07,46,2.20
2020,11,29,07,47,2.20
2020,11,29,07,48,2.10
2020,11,29,07,49,2.10
2020,11,29,07,50,2.10
2020,11,29,07,51,2.10
2020,11,29,07,52,2.00
2020,11,29,07,53,2.00
2020,11,29,07,54,2.00
2020,11,29,07,55,1.90
2020,11,29,07,56,1.90
2020,11,29,07,57,1.90
2020,11,29,07,58,1.90
2020,11,29,07,59,1.90
2020,11,29,08,00,1.90
2020,11,29,08,01,1.90
2020,11,29,08,02,1.90
2020,11,29,08,03,1.90
2020,11,29,08,04,1.90
2020,11,29,08,05,1.90
2020,11,29,08,06,1.90
2020,11,29,08,07,1.90
2020,11,29,08,08,1.90
2020,11,29,08,09,1.90
2020,11,29,08,10,1.90
2020,11,29,08,11,1.90
2020,11,29,08,12,1.90
2020,11,29,08,13,1.90
2020,11,29,08,14,1.90
2020,11,29,08,15,1.90
2020,11,29,08,16,1.80
2020,11,29,08,17,1.80
2020,11,29,08,18,1.80
2020,11,29,08,19,1.80
2020,11,29,08,20,1.80
2020,11,29,08,21,1.80
2020,11,29,08,22,1.80
2020,11,29,08,23,1.80
2020,11,29,08,24,1.80
2020,11,29,08,25,1.90
2020,11,29,08,26,1.90
2020,11,29,08,27,1.90
2020,11,29,08,28,1.90
2020,11,29,08,29,2.00
2020,11,29,08,30,2.00
2020,11,29,08,31,2.10
2020,11,29,08,32,2.10
2020,11,29,08,33,2.10
2020,11,29,08,34,2.10
2020,11,29,08,35,2.20
2020,11,29,08,36,2.20
2020,11,29,08,37,2.20
2020,11,29,08,38,2.30
2020,11,29,08,39,2.30
2020,11,29,08,40,2.40
2020,11,29,08,41,2.40
2020,11,29,08,42,2.50
2020,11,29,08,43,2.60
2020,11,29,08,44,2.70
2020,11,29,08,45,2.80
2020,11,29,08,46,2.80
2020,11,29,08,47,2.90
2020,11,29,08,48,3.00
2020,11,29,08,49,3.10
2020,11,29,08,50,3.20
2020,11,29,08,51,3.30
2020,11,29,08,52,3.40
2020,11,29,08,53,3.40
2020,11,29,08,54,3.50
2020,11,29,08,55,3.60
2020,11,29,08,56,3.60
2020,11,29,08,57,3.70
2020,11,29,08,58,3.80
2020,11,29,08,59,3.80
2020,11,29,09,00,3.90
2020,11,29,09,01,4.00
2020,11,29,09,02,4.10
2020,11,29,09,03,4.20
2020,11,29,09,04,4.30
2020,11,29,09,05,4.30
2020,11,29,09,06,4.30
2020,11,29,09,07,4.40
2020,11,29,09,08,4.40
2020,11,29,09,09,4.50
2020,11,29,09,10,4.50
2020,11,29,09,11,4.60
2020,11,29,09,12,4.60
2020,11,29,09,13,4.70
2020,11,29,09,14,4.70
2020,11,29,09,15,4.80
2020,11,29,09,16,4.80
2020,11,29,09,17,4.80
2020,11,29,09,18,4.80
2020,11,29,09,19,4.90
2020,11,29,09,20,4.90
2020,11,29,09,21,4.90
2020,11,29,09,22,4.90
2020,11,29,09,23,4.90
2020,11,29,09,24,4.90
2020,11,29,09,25,5.00
2020,11,29,09,26,5.00
2020,11,29,09,27,5.10
2020,11,29,09,28,5.10
2020,11,29,09,29,5.10
2020,11,29,09,30,5.10
2020,11,29,09,31,5.10
2020,11,29,09,32,5.10
2020,11,29,09,33,5.10
2020,11,29,09,34,5.10
2020,11,29,09,35,5.20
2020,11,29,09,36,5.20
2020,11,29,09,37,5.20
2020,11,29,09,38,5.10
2020,11,29,09,39,5.10
2020,11,29,09,40,5.10
2020,11,29,09,41,5.10
2020,11,29,09,42,5.20
2020,11,29,09,43,5.20
2020,11,29,09,44,5.20
2020,11,29,09,45,5.20
2020,11,29,09,46,5.20
2020,11,29,09,47,5.20
2020,11,29,09,48,5.20
2020,11,29,09,49,5.20
2020,11,29,09,50,5.20
2020,11,29,09,51,5.20
2020,11,29,09,52,5.20
2020,11,29,09,53,5.20
2020,11,29,09,54,5.30
2020,11,29,09,55,5.30
2020,11,29,09,56,5.30
2020,11,29,09,57,5.30
2020,11,29,09,58,5.40
2020,11,29,09,59,5.40
2020,11,29,10,00,5.40
2020,11,29,10,01,5.40
2020,11,29,10,02,5.40
2020,11,29,10,03,5.40
2020,11,29,10,04,5.50
2020,11,29,10,05,5.50
2020,11,29,10,06,5.50
2020,11,29,10,07,5.60
2020,11,29,10,08,5.60
2020,11,29,10,09,5.60
2020,11,29,10,10,5.70
2020,11,29,10,11,5.70
2020,11,29,10,12,5.70
2020,11,29,10,13,5.80
2020,11,29,10,14,5.80
2020,11,29,10,15,5.80
2020,11,29,10,16,5.80
2020,11,29,10,17,5.90
2020,11,29,10,18,5.90
2020,11,29,10,19,5.90
2020,11,29,10,20,5.90
2020,11,29,10,21,5.90
2020,11,29,10,22,5.90
2020,11,29,10,23,5.90
2020,11,29,10,24,5.90
2020,11,29,10,25,5.90
2020,11,29,10,26,5.90
2020,11,29,10,27,5.90
2020,11,29,10,28,5.90
2020,11,29,10,29,5.90
2020,11,29,10,30,5.90
2020,11,29,10,31,6.00
2020,11,29,10,32,6.00
2020,11,29,10,33,6.00
2020,11,29,10,34,6.00
2020,11,29,10,35,6.00
2020,11,29,10,36,6.00
2020,11,29,10,37,6.10
2020,11,29,10,38,6.10
2020,11,29,10,39,6.10
2020,11,29,10,40,6.10
2020,11,29,10,41,6.10
2020,11,29,10,42,6.10
2020,11,29,10,43,6.10
2020,11,29,10,44,6.10
2020,11,29,10,45,6.20
2020,11,29,10,46,6.20
2020,11,29,10,47,6.20
2020,11,29,10,48,6.20
2020,11,29,10,49,6.20
2020,11,29,10,50,6.20
2020,11,29,10,51,6.20
2020,11,29,10,52,6.20
2020,11,29,10,53,6.20
2020,11,29,10,54,6.20
2020,11,29,10,55,6.20
2020,11,29,10,56,6.20
2020,11,29,10,57,6.20
2020,11,29,10,58,6.20
2020,11,29,10,59,6.20
2020,11,29,11,00,6.20
2020,11,29,11,01,6.20
2020,11,29,11,02,6.20
2020,11,29,11,03,6.20
2020,11,29,11,04,6.20
2020,11,29,11,05,6.10
2020,11,29,11,06,6.10
2020,11,29,11,07,6.10
2020,11,29,11,08,6.10
2020,11,29,11,09,6.10
2020,11,29,11,10,6.20
2020,11,29,11,11,6.20
2020,11,29,11,12,6.20
2020,11,29,11,13,6.20
2020,11,29,11,14,6.20
2020,11,29,11,15,6.20
2020,11,29,11,16,6.20
2020,11,29,11,17,6.20
2020,11,29,11,18,6.20
2020,11,29,11,19,6.20
2020,11,29,11,20,6.20
2020,11,29,11,21,6.20
2020,11,29,11,22,6.30
2020,11,29,11,23,6.30
2020,11,29,11,24,6.30
2020,11,29,11,25,6.30
2020,11,29,11,26,6.30
2020,11,29,11,27,6.30
2020,11,29,11,28,6.30
2020,11,29,11,29,6.30
2020,11,29,11,30,6.30
2020,11,29,11,31,6.40
2020,11,29,11,32,6.40
2020,11,29,11,33,6.40
2020,11,29,11,34,6.40
2020,11,29,11,35,6.40
2020,11,29,11,36,6.40
2020,11,29,11,37,6.40
2020,11,29,11,38,6.40
2020,11,29,11,39,6.40
2020,11,29,11,40,6.40
2020,11,29,11,41,6.50
2020,11,29,11,42,6.50
2020,11,29,11,43,6.50
2020,11,29,11,44,6.50
2020,11,29,11,45,6.50
2020,11,29,11,46,6.50
2020,11,29,11,47,6.50
2020,11,29,11,48,6.60
2020,11,29,11,49,6.60
2020,11,29,11,50,6.60
2020,11,29,11,51,6.60
2020,11,29,11,52,6.60
2020,11,29,11,53,6.60
2020,11,29,11,54,6.60
2020,11,29,11,55,6.60
2020,11,29,11,56,6.60
2020,11,29,11,57,6.60
2020,11,29,11,58,6.60
2020,11,29,11,59,6.60
2020,11,29,12,00,6.60
2020,11,29,12,01,6.60
2020,11,29,12,02,6.60
2020,11,29,12,03,6.70
2020,11,29,12,04,6.70
2020,11,29,12,05,6.70
2020,11,29,12,06,6.70
2020,11,29,12,07,6.70
2020,11,29,12,08,6.70
2020,11,29,12,09,6.70
2020,11,29,12,10,6.70
2020,11,29,12,11,6.70
2020,11,29,12,12,6.70
2020,11,29,12,13,6.70
2020,11,29,12,14,6.70
2020,11,29,12,15,6.70
2020,11,29,12,16,6.70
2020,11,29,12,17,6.70
2020,11,29,12,18,6.70
2020,11,29,12,19,6.70
2020,11,29,12,20,6.70
2020,11,29,12,21,6.80
2020,11,29,12,22,6.80
2020,11,29,12,23,6.80
2020,11,29,12,24,6.80
2020,11,29,12,25,6.80
2020,11,29,12,26,6.80
2020,11,29,12,27,6.80
2020,11,29,12,28,6.80
2020,11,29,12,29,6.80
2020,11,29,12,30,6.80
2020,11,29,12,31,6.80
2020,11,29,12,32,6.80
2020,11,29,12,33,6.80
2020,11,29,12,34,6.80
2020,11,29,12,35,6.80
2020,11,29,12,36,6.80
2020,11,29,12,37,6.80
2020,11,29,12,38,6.80
2020,11,29,12,39,6.80
2020,11,29,12,40,6.90
2020,11,29,12,41,6.90
2020,11,29,12,42,6.90
2020,11,29,12,43,6.90
2020,11,29,12,44,6.90
2020,11,29,12,45,6.90
2020,11,29,12,46,6.90
2020,11,29,12,47,7.00
2020,11,29,12,48,7.00
2020,11,29,12,49,7.00
2020,11,29,12,50,7.00
2020,11,29,12,51,7.10
2020,11,29,12,52,7.10
2020,11,29,12,53,7.10
2020,11,29,12,54,7.10
2020,11,29,12,55,7.20
2020,11,29,12,56,7.20
2020,11,29,12,57,7.20
2020,11,29,12,58,7.20
2020,11,29,12,59,7.20
2020,11,29,13,00,7.20
2020,11,29,13,01,7.30
2020,11,29,13,02,7.30
2020,11,29,13,03,7.30
2020,11,29,13,04,7.30
2020,11,29,13,05,7.30
2020,11,29,13,06,7.30
2020,11,29,13,07,7.40
2020,11,29,13,08,7.40
2020,11,29,13,09,7.40
2020,11,29,13,10,7.40
2020,11,29,13,11,7.40
2020,11,29,13,12,7.40
2020,11,29,13,13,7.40
2020,11,29,13,14,7.40
2020,11,29,13,15,7.40
2020,11,29,13,16,7.40
2020,11,29,13,17,7.40
2020,11,29,13,18,7.40
2020,11,29,13,19,7.40
2020,11,29,13,20,7.40
2020,11,29,13,21,7.40
2020,11,29,13,22,7.40
2020,11,29,13,23,7.40
2020,11,29,13,24,7.40
2020,11,29,13,25,7.40
2020,11,29,13,26,7.40
2020,11,29,13,27,7.40
2020,11,29,13,28,7.40
2020,11,29,13,29,7.40
2020,11,29,13,30,7.50
2020,11,29,13,31,7.50
2020,11,29,13,32,7.50
2020,11,29,13,33,7.50
2020,11,29,13,34,7.50
2020,11,29,13,35,7.60
2020,11,29,13,36,7.60
2020,11,29,13,37,7.60
2020,11,29,13,38,7.60
2020,11,29,13,39,7.60
2020,11,29,13,40,7.60
2020,11,29,13,41,7.60
2020,11,29,13,42,7.60
2020,11,29,13,43,7.60
2020,11,29,13,44,7.60
2020,11,29,13,45,7.60
2020,11,29,13,46,7.60
2020,11,29,13,47,7.60
2020,11,29,13,48,7.60
2020,11,29,13,49,7.60
2020,11,29,13,50,7.60
2020,11,29,13,51,7.60
2020,11,29,13,52,7.60
2020,11,29,13,53,7.60
2020,11,29,13,54,7.60
2020,11,29,13,55,7.60
2020,11,29,13,56,7.70
2020,11,29,13,57,7.70
2020,11,29,13,58,7.70
2020,11,29,13,59,7.70
2020,11,29,14,00,7.70
2020,11,29,14,01,7.70
2020,11,29,14,02,7.60
2020,11,29,14,03,7.60
2020,11,29,14,04,7.60
2020,11,29,14,05,7.60
2020,11,29,14,06,7.60
2020,11,29,14,07,7.60
2020,11,29,14,08,7.60
2020,11,29,14,09,7.60
2020,11,29,14,10,7.60
2020,11,29,14,11,7.60
2020,11,29,14,12,7.60
2020,11,29,14,13,7.60
2020,11,29,14,14,7.60
2020,11,29,14,15,7.60
2020,11,29,14,16,7.50
2020,11,29,14,17,7.50
2020,11,29,14,18,7.50
2020,11,29,14,19,7.50
2020,11,29,14,20,7.50
2020,11,29,14,21,7.50
2020,11,29,14,22,7.50
2020,11,29,14,23,7.50
2020,11,29,14,24,7.50
2020,11,29,14,25,7.50
2020,11,29,14,26,7.50
2020,11,29,14,27,7.50
2020,11,29,14,28,7.50
2020,11,29,14,29,7.50
2020,11,29,14,30,7.50
2020,11,29,14,31,7.50
2020,11,29,14,32,7.50
2020,11,29,14,33,7.50
2020,11,29,14,34,7.50
2020,11,29,14,35,7.50
2020,11,29,14,36,7.50
2020,11,29,14,37,7.60
2020,11,29,14,38,7.50
2020,11,29,14,39,7.50
2020,11,29,14,40,7.50
2020,11,29,14,41,7.50
2020,11,29,14,42,7.50
2020,11,29,14,43,7.50
2020,11,29,14,44,7.60
2020,11,29,14,45,7.60
2020,11,29,14,46,7.60
2020,11,29,14,47,7.60
2020,11,29,14,48,7.50
2020,11,29,14,49,7.50
2020,11,29,14,50,7.50
2020,11,29,14,51,7.50
2020,11,29,14,52,7.50
2020,11,29,14,53,7.50
2020,11,29,14,54,7.50
2020,11,29,14,55,7.50
2020,11,29,14,56,7.50
2020,11,29,14,57,7.50
2020,11,29,14,58,7.60
2020,11,29,14,59,7.60
2020,11,29,15,00,7.60
2020,11,29,15,01,7.60
2020,11,29,15,02,7.60
2020,11,29,15,03,7.60
2020,11,29,15,04,7.60
2020,11,29,15,05,7.60
2020,11,29,15,06,7.60
2020,11,29,15,07,7.60
2020,11,29,15,08,7.60
2020,11,29,15,09,7.60
2020,11,29,15,10,7.60
2020,11,29,15,11,7.60
2020,11,29,15,12,7.60
2020,11,29,15,13,7.60
2020,11,29,15,14,7.60
2020,11,29,15,15,7.60
2020,11,29,15,16,7.60
2020,11,29,15,17,7.60
2020,11,29,15,18,7.60
2020,11,29,15,19,7.60
2020,11,29,15,20,7.60
2020,11,29,15,21,7.60
2020,11,29,15,22,7.60
2020,11,29,15,23,7.60
2020,11,29,15,24,7.60
2020,11,29,15,25,7.60
2020,11,29,15,26,7.60
2020,11,29,15,27,7.60
2020,11,29,15,28,7.60
2020,11,29,15,29,7.60
2020,11,29,15,30,7.50
2020,11,29,15,31,7.50
2020,11,29,15,32,7.50
2020,11,29,15,33,7.50
2020,11,29,15,34,7.40
2020,11,29,15,35,7.40
2020,11,29,15,36,7.40
2020,11,29,15,37,7.40
2020,11,29,15,38,7.40
2020,11,29,15,39,7.40
2020,11,29,15,40,7.40
2020,11,29,15,41,7.40
2020,11,29,15,42,7.40
2020,11,29,15,43,7.40
2020,11,29,15,44,7.40
2020,11,29,15,45,7.40
2020,11,29,15,46,7.30
2020,11,29,15,47,7.30
2020,11,29,15,48,7.30
2020,11,29,15,49,7.30
2020,11,29,15,50,7.30
2020,11,29,15,51,7.30
2020,11,29,15,52,7.30
2020,11,29,15,53,7.30
2020,11,29,15,54,7.30
2020,11,29,15,55,7.30
2020,11,29,15,56,7.30
2020,11,29,15,57,7.30
2020,11,29,15,58,7.30
2020,11,29,15,59,7.30
2020,11,29,16,00,7.20
2020,11,29,16,01,7.20
2020,11,29,16,02,7.20
2020,11,29,16,03,7.20
2020,11,29,16,04,7.20
2020,11,29,16,05,7.20
2020,11,29,16,06,7.20
2020,11,29,16,07,7.20
2020,11,29,16,08,7.10
2020,11,29,16,09,7.10
2020,11,29,16,10,7.10
2020,11,29,16,11,7.10
2020,11,29,16,12,7.10
2020,11,29,16,13,7.00
2020,11,29,16,14,7.00
2020,11,29,16,15,7.00
2020,11,29,16,16,7.00
2020,11,29,16,17,7.00
2020,11,29,16,18,6.90
2020,11,29,16,19,6.90
2020,11,29,16,20,6.90
2020,11,29,16,21,6.90
2020,11,29,16,22,6.90
2020,11,29,16,23,6.90
2020,11,29,16,24,6.90
2020,11,29,16,25,6.80
2020,11,29,16,26,6.80
2020,11,29,16,27,6.80
2020,11,29,16,28,6.80
2020,11,29,16,29,6.80
2020,11,29,16,30,6.80
2020,11,29,16,31,6.70
2020,11,29,16,32,6.70
2020,11,29,16,33,6.70
2020,11,29,16,34,6.70
2020,11,29,16,35,6.70
2020,11,29,16,36,6.70
2020,11,29,16,37,6.70
2020,11,29,16,38,6.60
2020,11,29,16,39,6.60
2020,11,29,16,40,6.60
2020,11,29,16,41,6.60
2020,11,29,16,42,6.60
2020,11,29,16,43,6.60
2020,11,29,16,44,6.60
2020,11,29,16,45,6.60
2020,11,29,16,46,6.60
2020,11,29,16,47,6.60
2020,11,29,16,48,6.60
2020,11,29,16,49,6.60
2020,11,29,16,50,6.60
2020,11,29,16,51,6.60
2020,11,29,16,52,6.50
2020,11,29,16,53,6.50
2020,11,29,16,54,6.50
2020,11,29,16,55,6.50
2020,11,29,16,56,6.50
2020,11,29,16,57,6.50
2020,11,29,16,58,6.50
2020,11,29,16,59,6.50
2020,11,29,17,00,6.50
2020,11,29,17,01,6.40
2020,11,29,17,02,6.40
2020,11,29,17,03,6.40
2020,11,29,17,04,6.40
2020,11,29,17,05,6.40
2020,11,29,17,06,6.40
2020,11,29,17,07,6.40
2020,11,29,17,08,6.40
2020,11,29,17,09,6.40
2020,11,29,17,10,6.40
2020,11,29,17,11,6.40
2020,11,29,17,12,6.40
2020,11,29,17,13,6.40
2020,11,29,17,14,6.30
2020,11,29,17,15,6.30
2020,11,29,17,16,6.30
2020,11,29,17,17,6.30
2020,11,29,17,18,6.30
2020,11,29,17,19,6.30
2020,11,29,17,20,6.30
2020,11,29,17,21,6.30
2020,11,29,17,22,6.30
2020,11,29,17,23,6.30
2020,11,29,17,24,6.30
2020,11,29,17,25,6.30
2020,11,29,17,26,6.30
2020,11,29,17,27,6.30
2020,11,29,17,28,6.20
2020,11,29,17,29,6.20
2020,11,29,17,30,6.20
2020,11,29,17,31,6.20
2020,11,29,17,32,6.20
2020,11,29,17,33,6.20
2020,11,29,17,34,6.20
2020,11,29,17,35,6.20
2020,11,29,17,36,6.20
2020,11,29,17,37,6.20
2020,11,29,17,38,6.20
2020,11,29,17,39,6.20
2020,11,29,17,40,6.20
2020,11,29,17,41,6.20
2020,11,29,17,42,6.20
2020,11,29,17,43,6.20
2020,11,29,17,44,6.20
2020,11,29,17,45,6.10
2020,11,29,17,46,6.10
2020,11,29,17,47,6.10
2020,11,29,17,48,6.10
2020,11,29,17,49,6.00
2020,11,29,17,50,6.00
2020,11,29,17,51,5.90
2020,11,29,17,52,5.90
2020,11,29,17,53,5.90
2020,11,29,17,54,5.90
2020,11,29,17,55,5.80
2020,11,29,17,56,5.80
2020,11,29,17,57,5.80
2020,11,29,17,58,5.80
2020,11,29,17,59,5.70
2020,11,29,18,00,5.70
2020,11,29,18,01,5.70
2020,11,29,18,02,5.70
2020,11,29,18,03,5.60
2020,11,29,18,04,5.60
2020,11,29,18,05,5.60
2020,11,29,18,06,5.60